Regional Weather Roundup
Issued by NWS New Orleans/Baton Rouge, LA

Home | Current Version | Previous Version | Text Only | Print | Product List | Glossary On
Versions: 1 2 3 4 5 6 7 8 9 10 11 12 13 14 15 16 17 18 19 20 21 22 23 24 25 26 27
000
ASUS44 KLIX 221914
RWRLIX
NEW ORLEANS REGIONAL WEATHER ROUNDUP
NATIONAL WEATHER SERVICE NEW ORLEANS LA
200 PM CDT MON MAY 22 2017

NOTE: "FAIR" INDICATES FEW OR NO CLOUDS BELOW 12,000 FEET WITH NO
      SIGNIFICANT WEATHER AND/OR OBSTRUCTIONS TO VISIBILITY.
      SKY/WX - SKY CONDITION AND SIGNIFICANT WEATHER.
      TMP - AIR TEMPERATURE.     DP    - DEWPOINT TEMPERATURE.
      RH  - RELATIVE HUMIDITY.   PRES  - PRESSURE.
      HI  - HEAT INDEX.          WCI   - WIND CHILL INDEX.

*  THESE STATIONS ARE NOT NWS OR FAA STATIONS AND ARE NOT UNDER
   NWS QUALITY CONTROL.

LAZ038-040-048-061>063-065>067-069-222000-
SOUTHEAST LOUISIANA

CITY           SKY/WX    TMP DP  RH WIND       PRES   REMARKS
N.O. INTL ARPT CLOUDY    76  69  79 N3        30.01S
N.O. LAKEFRONT CLOUDY    77  69  76 N3        30.01F
N.O. DOWNTOWN*   N/A     78  67  68 CALM        N/A
RESERVE*       MOCLDY    78  69  72 NE3       30.01F
SLIDELL        CLOUDY    78  68  71 SW5       30.01S
BATON ROUGE    LGT RAIN  72  68  87 E6        30.01F
BOOTHVILLE     CLOUDY    80  73  79 NE3       30.01F
BELLE CHASSE   CLOUDY    78  68  71 E5        30.01S
BOGALUSA*      CLOUDY    75  67  76 CALM      30.04R
GALLIANO*      CLOUDY    78  71  77 NE3       30.01F
NEW ROADS*     LGT RAIN  70  68  93 E6        30.01F
GONZALES*      MOCLDY    75  69  82 CALM      30.00F
HAMMOND*       CLOUDY    77  64  65 NE3       30.00F
HOUMA*         CLOUDY    75  70  83 NE9       30.02F
PORT FOURCHON* CLEAR     79  72  78 VRB6      30.01S

$$

MSZ070-080>082-222000-
SOUTHERN MISSISSIPPI

CITY           SKY/WX    TMP DP  RH WIND       PRES   REMARKS
MCCOMB         LGT RAIN  71  66  84 CALM      30.03F
GULFPORT       CLOUDY    77  69  76 W3        30.00F
BILOXI         CLOUDY    78  67  68 SW3       30.00F
PASCAGOULA     CLOUDY    79  68  69 CALM      30.00F
STENNIS ARPT*  PTSUNNY   75  70  83 CALM      30.02S

$$

COASTAL OBSERVATIONS
LAKE AND NEARSHORE STATIONS

STATION/POSITION TIME  TEMP    WIND        PRES    WAVE
                       AIR SEA DIR/SP/G            HT/PER
                 (UTC) (F)     (DEG/KT/KT) (MB)    (FT/S)
PASCAGOULA       1848   79     170/  4/  5 1015.7
WAVELAND YACHT   1848   76 78  210/  2/  4 1016.2
GRAND ISLE       1848   79 80  110/  4/  7 1015.9
SOUTHWEST PASS   1848           60/  4/  5   N/A
NEW CANAL        1848   76 79   10/  4/  5 1016.2
SHELL BEACH      1848   76 80  360/  4/  5 1016.5

OFFSHORE STATIONS

STATION/POSITION TIME  TEMP    WIND        PRES    WAVE
                       AIR SEA DIR/SP/G            HT/PER
                 (UTC) (F)     (DEG/KT/KT) (MB)    (FT/S)
64 S DAUPHIN ISL 1850   78 79  140/  2/  4 1016.0    2/ 7

$$





USA.gov is the U.S. government's official web portal to all federal, state and local government web resources and services.